Weather in Peñíscola

Spain     40°21′35″N   0°24′07″E
temp.,
°C
wind,
m/s
gust,
m/s
humid.,
%
clouds,
%
prec.,
mm/h
press.,
hPa
HPBL,
m
16 april, fri
fri1623:00+13ne5563100 0.0 1018809
02:00+13nne446297 0.0 1018622
05:00+12nne446382 0.0 1017401
08:00+13nne446170 0.0 1017595
11:00+13nne44555 0.0 1018697
14:00+13e655925 0.0 1017742
17:00+13e55590 0.0 1017963
20:00+13ese556048 0.0 10171034
17 april, sat
sat1723:00+13se43563 0.3 1020790
02:00+12nw765313 0.3 1019498
05:00+11nw910555 0.0 1018711
08:00+10nnw565780 0.0 1019705
11:00+11nnw345413 0.0 1019870
14:00+11ese54585 0.0 1018339
17:00+12sse65640 0.0 1017668
20:00+12s77662 0.0 1017446
18 april, sun
sun1823:00+13nw911503 0.0 1018904
02:00+11nw1112590 0.0 1019768
05:00+11nnw1111630 0.0 1019708
08:00+11nnw99600 0.0 1019598
11:00+13nnw66510 0.0 1020759
14:00+13se65590 0.0 1020370
17:00+14s77570 0.0 1019555
20:00+14s77590 0.0 1019457
19 april, mon
mon1923:00+14sw8965100 0.0 1020560
02:00+14sw81070100 0.0 1019538
05:00+14sw557053 0.0 1017291
08:00+14wsw2264100 0.0 1017202
11:00+14nne115724 0.0 1017158
14:00+15sse225897 0.0 1015258
17:00+15ese236483 0.0 1013324
20:00+15ene2274100 0.0 1012100
20 april, tue
tue2023:00+15nne3378100 0.0 101478
02:00+15ne6680100 0.0 1013238
05:00+15ne6681100 0.0 1012277
08:00+14nne3383100 0.8 1012219
11:00+14nne2383100 0.6 1013291
14:00+14e338192 0.8 1012268
17:00+15s337769 0.1 1011310
20:00+15sse337522 0.1 1011272